period_start,C,m1,H,J0,J1,J2,J3,J4,J5,JA,JB,JC,JD,JJ,JK,JN,#
2018-08-06 07:33:37,0.00,0.00,0.00,18.07,18.30,17.56,12.76,39.67,1020.35,1930.78,3331.76,2937.15,3384.34,548.83,558.27,0.01,0000 0000 0000 0000 000000
2018-08-06 07:38:37,0.00,0.00,0.00,18.11,18.27,19.28,13.91,43.20,1020.64,2066.31,3562.05,3141.74,3620.49,600.02,608.40,0.06,0000 0000 0000 0000 000000
2018-08-06 07:43:39,0.00,0.00,0.00,18.24,18.26,20.23,13.99,43.31,1020.99,2066.00,3560.36,3140.74,3618.93,600.21,608.57,0.11,0000 0000 0000 0000 000000
2018-08-06 07:48:40,0.01,0.00,0.00,18.51,18.28,20.77,14.08,43.92,1021.02,2066.00,3559.38,3139.95,3617.80,600.58,608.28,0.16,0000 0000 0000 0000 000000
2018-08-06 07:53:41,0.03,0.00,0.00,18.85,18.33,21.18,13.98,44.29,1021.09,2065.96,3558.20,3139.08,3616.80,600.26,607.40,0.21,0000 0000 0000 0000 000000
2018-08-06 07:58:42,0.01,0.00,0.00,19.16,18.42,21.42,13.92,44.33,1021.34,2065.33,3557.18,3138.32,3615.71,600.16,606.71,0.26,0000 0000 0000 0000 000000
2018-08-06 08:03:44,0.03,0.01,0.00,19.47,18.53,21.64,13.95,44.48,1021.49,2065.00,3556.06,3137.43,3614.53,599.60,605.82,0.31,0000 0000 0000 0000 000000
2018-08-06 08:08:45,-0.01,0.01,0.00,19.80,18.67,21.94,13.96,44.42,1021.50,2064.67,3555.05,3136.58,3613.37,600.03,605.36,0.36,0000 0000 0000 0000 000000
2018-08-06 08:13:46,0.03,0.01,0.00,20.13,18.84,22.28,13.88,44.35,1021.50,2064.01,3553.96,3135.50,3612.04,599.63,604.53,0.41,0000 0000 0000 0000 000000
2018-08-06 08:18:47,-0.01,0.01,0.00,20.45,19.02,22.62,13.94,44.32,1021.51,2063.35,3552.58,3134.51,3610.55,600.45,604.53,0.46,0000 0000 0000 0000 000000
2018-08-06 08:23:49,0.03,0.01,0.00,20.77,19.23,22.93,13.90,44.41,1021.56,2062.81,3551.37,3133.34,3608.96,599.55,603.20,0.51,0000 0000 0000 0000 000000
2018-08-06 08:28:50,0.01,0.01,0.00,21.02,19.45,23.27,13.84,44.24,1021.58,2062.04,3549.81,3132.09,3607.40,599.89,602.88,0.56,0000 0000 0000 0000 000000
2018-08-06 08:33:52,-0.00,0.01,0.00,21.25,19.68,23.60,13.92,44.18,1021.73,2061.28,3548.42,3130.78,3605.68,600.51,603.03,0.61,0000 0000 0000 0000 000000
2018-08-06 08:38:53,0.01,0.01,0.00,21.45,19.92,23.90,13.89,44.21,1021.97,2060.40,3546.82,3129.29,3603.86,600.00,602.44,0.66,0000 0000 0000 0000 000000
2018-08-06 08:43:54,0.01,0.01,0.00,21.65,20.16,24.21,13.84,44.27,1021.99,2059.56,3545.23,3127.79,3601.97,599.66,601.59,0.71,0000 0000 0000 0000 000000
2018-08-06 08:48:56,0.01,0.01,0.00,21.82,20.41,24.50,13.82,44.13,1021.99,2058.68,3543.54,3126.31,3600.11,599.94,601.44,0.76,0000 0000 0000 0000 000000
2018-08-06 08:53:57,0.03,0.01,0.00,21.96,20.66,24.77,13.81,44.10,1022.01,2057.80,3541.89,3124.82,3598.33,599.71,601.10,0.81,0000 0000 0000 0000 000000
2018-08-06 08:58:58,0.01,0.01,0.00,22.09,20.90,25.05,13.89,44.22,1022.11,2056.85,3540.22,3123.23,3596.32,599.89,601.01,0.86,0000 0000 0000 0000 000000
2018-08-06 09:04:00,0.01,0.01,0.00,22.20,21.15,25.33,13.91,44.14,1022.29,2055.92,3538.48,3121.67,3594.38,600.22,601.12,0.91,0000 0000 0000 0000 000000
2018-08-06 09:09:01,0.01,0.01,0.00,22.31,21.40,25.57,13.79,44.12,1022.44,2054.97,3536.76,3120.11,3592.47,600.10,600.95,0.96,0000 0000 0000 0000 000000
2018-08-06 09:14:03,0.01,0.01,0.00,22.40,21.64,25.82,13.87,44.13,1022.48,2053.96,3535.03,3118.58,3590.51,599.90,600.57,1.01,0000 0000 0000 0000 000000
2018-08-06 09:19:04,0.00,0.01,0.00,22.47,21.86,26.03,13.81,44.10,1022.48,2053.00,3533.38,3117.04,3588.56,599.83,600.30,1.06,0000 0000 0000 0000 000000
2018-08-06 09:24:05,0.01,0.01,0.00,22.55,22.09,26.25,13.86,43.94,1022.48,2052.08,3531.63,3115.50,3586.71,600.10,600.48,1.11,0000 0000 0000 0000 000000
2018-08-06 09:29:06,-0.00,0.01,0.00,22.61,22.31,26.44,13.89,44.08,1022.49,2051.25,3530.02,3114.08,3584.94,600.00,600.27,1.16,0000 0000 0000 0000 000000
2018-08-06 09:34:07,-0.00,0.01,0.00,22.66,22.52,26.62,13.83,43.90,1022.50,2050.30,3528.48,3112.58,3583.26,599.80,600.26,1.21,0000 0000 0000 0000 000000
2018-08-06 09:39:09,-0.01,0.02,0.00,22.73,22.73,26.78,13.90,43.90,1022.61,2049.39,3526.92,3111.19,3581.59,599.95,599.98,1.26,0000 0000 0000 0000 000000
2018-08-06 09:44:10,0.01,0.02,0.00,22.77,22.93,26.92,13.89,43.76,1022.71,2048.59,3525.46,3109.79,3579.95,600.06,600.14,1.31,0000 0000 0000 0000 000000
2018-08-06 09:49:11,0.01,0.02,0.00,22.82,23.12,27.10,13.85,43.67,1022.91,2047.70,3523.89,3108.47,3578.26,599.79,599.87,1.36,0000 0000 0000 0000 000000
2018-08-06 09:54:12,0.03,0.02,0.00,22.86,23.30,27.28,13.81,43.72,1022.96,2047.02,3522.60,3107.15,3576.65,599.98,600.03,1.41,0000 0000 0000 0000 000000
2018-08-06 09:59:13,0.00,0.02,0.00,22.90,23.48,27.41,13.95,43.75,1022.96,2046.38,3521.03,3105.77,3574.95,600.17,600.14,1.46,0000 0000 0000 0000 000000
2018-08-06 10:04:14,0.02,0.02,0.00,22.93,23.65,27.53,13.94,43.54,1022.98,2045.76,3519.68,3104.60,3573.53,600.19,600.14,1.51,0000 0000 0000 0000 000000
2018-08-06 10:09:15,0.01,0.02,0.00,22.97,23.81,27.57,13.87,43.45,1022.98,2045.04,3518.48,3103.46,3572.11,600.04,599.97,1.56,0000 0000 0000 0000 000000
2018-08-06 10:14:17,-0.02,0.02,0.00,22.99,23.96,27.63,13.86,43.47,1022.98,2044.36,3517.33,3102.36,3570.69,600.29,600.08,1.61,0000 0000 0000 0000 000000
2018-08-06 10:19:18,0.01,0.02,0.00,23.03,24.11,27.71,13.87,43.47,1023.00,2043.77,3516.05,3101.21,3569.33,600.14,599.98,1.66,0000 0000 0000 0000 000000
2018-08-06 10:24:20,0.01,0.02,0.00,23.06,24.25,27.69,13.83,43.45,1022.99,2043.03,3514.79,3100.13,3567.97,599.68,599.34,1.71,0000 0000 0000 0000 000000
2018-08-06 10:29:21,-0.01,0.02,0.00,23.08,24.39,27.72,13.85,43.48,1022.98,2042.38,3513.56,3099.10,3566.63,600.28,599.89,1.76,0000 0000 0000 0000 000000
2018-08-06 10:34:22,0.04,0.02,0.00,23.10,24.52,27.77,13.83,43.48,1022.98,2041.94,3512.37,3098.05,3565.40,599.71,599.29,1.81,0000 0000 0000 0000 000000
2018-08-06 10:39:24,-0.03,0.02,0.00,23.12,24.64,27.79,13.90,43.48,1022.99,2041.13,3511.33,3097.06,3564.15,600.33,599.80,1.86,0000 0000 0000 0000 000000
2018-08-06 10:44:25,0.00,0.02,0.00,23.14,24.76,27.90,13.78,43.28,1023.00,2040.71,3510.34,3096.17,3562.98,599.79,599.34,1.91,0000 0000 0000 0000 000000
2018-08-06 10:49:26,0.01,0.02,0.00,23.16,24.87,27.99,13.90,43.39,1022.98,2040.03,3509.31,3095.31,3561.97,600.11,599.61,1.96,0000 0000 0000 0000 000000
2018-08-06 10:54:27,0.03,0.02,0.00,23.17,24.97,28.13,13.88,43.37,1023.00,2039.90,3508.48,3094.62,3560.93,599.92,599.24,2.01,0000 0000 0000 0000 000000
2018-08-06 10:59:28,-0.02,0.02,0.00,23.18,25.07,28.17,13.87,43.41,1023.06,2039.14,3507.35,3093.70,3559.85,599.74,599.32,2.07,0000 0000 0000 0000 000000
2018-08-06 11:04:30,0.04,0.02,0.00,23.19,25.17,28.23,13.85,43.32,1023.11,2038.94,3506.25,3092.81,3558.72,599.62,599.02,2.12,0000 0000 0000 0000 000000
2018-08-06 11:09:31,-0.04,0.02,0.00,23.20,25.26,28.25,13.90,43.48,1023.43,2038.14,3505.39,3092.02,3557.68,600.11,599.67,2.17,0000 0000 0000 0000 000000
2018-08-06 11:14:32,0.03,0.02,0.00,23.22,25.34,28.31,13.89,43.42,1023.45,2037.99,3504.71,3091.26,3556.90,599.69,599.29,2.22,0000 0000 0000 0000 000000
2018-08-06 11:19:33,-0.03,0.02,0.00,23.23,25.43,28.34,13.87,43.33,1023.45,2037.55,3503.98,3090.81,3556.05,600.01,599.63,2.27,0000 0000 0000 0000 000000
2018-08-06 11:24:35,0.01,0.02,0.00,23.23,25.50,28.39,13.88,43.26,1023.45,2037.03,3503.14,3090.04,3555.23,599.99,599.60,2.32,0000 0000 0000 0000 000000
2018-08-06 11:29:36,0.04,0.02,0.00,23.24,25.58,28.46,13.85,43.27,1023.44,2036.97,3502.40,3089.47,3554.39,599.75,599.29,2.37,0000 0000 0000 0000 000000
2018-08-06 11:34:37,-0.04,0.02,0.00,23.26,25.65,28.50,13.95,43.26,1023.45,2036.34,3501.60,3088.90,3553.53,600.11,599.59,2.42,0000 0000 0000 0000 000000
2018-08-06 11:39:38,0.01,0.02,0.00,23.27,25.71,28.61,13.84,43.26,1023.43,2036.01,3500.89,3088.09,3552.88,599.89,599.37,2.47,0000 0000 0000 0000 000000
2018-08-06 11:44:39,0.04,0.03,0.00,23.27,25.78,28.63,13.93,43.38,1023.40,2035.98,3500.06,3087.60,3552.04,599.99,599.50,2.52,0000 0000 0000 0000 000000
2018-08-06 11:49:41,-0.03,0.03,0.00,23.29,25.84,28.78,13.93,43.53,1023.44,2035.40,3499.24,3087.01,3551.23,599.98,599.34,2.57,0000 0000 0000 0000 000000
2018-08-06 11:54:42,0.02,0.02,0.00,23.32,25.90,28.85,13.88,43.33,1023.45,2035.02,3498.78,3086.53,3550.63,599.95,599.31,2.62,0000 0000 0000 0000 000000
2018-08-06 11:59:43,0.02,0.03,0.00,23.31,25.95,28.90,13.86,43.26,1023.45,2035.00,3498.03,3086.01,3549.95,599.83,599.26,2.67,0000 0000 0000 0000 000000
2018-08-06 12:04:44,0.03,0.03,0.00,23.32,26.00,28.94,13.89,43.19,1023.45,2034.92,3497.47,3085.48,3549.13,600.02,599.48,2.72,0000 0000 0000 0000 000000
2018-08-06 12:09:45,-0.04,0.03,0.00,23.31,26.06,28.98,13.90,43.26,1023.45,2034.35,3496.99,3085.01,3548.83,599.89,599.32,2.77,0000 0000 0000 0000 000000
2018-08-06 12:14:46,0.02,0.03,0.00,23.30,26.10,29.01,13.85,43.19,1023.45,2034.03,3496.42,3084.82,3548.08,599.87,599.31,2.82,0000 0000 0000 0000 000000
2018-08-06 12:19:48,0.02,0.03,0.00,23.31,26.15,29.02,13.87,43.20,1023.45,2034.00,3495.98,3084.09,3547.73,600.14,599.52,2.87,0000 0000 0000 0000 000000
2018-08-06 12:24:49,0.02,0.03,0.00,23.31,26.19,29.05,13.94,43.26,1023.45,2033.98,3495.21,3083.98,3547.02,599.98,599.40,2.92,0000 0000 0000 0000 000000
2018-08-06 12:29:51,0.02,0.03,0.00,23.32,26.23,29.10,13.87,43.23,1023.45,2033.97,3494.99,3083.41,3546.79,600.07,599.46,2.97,0000 0000 0000 0000 000000
2018-08-06 12:34:52,-0.03,0.03,0.00,23.32,26.27,29.09,13.88,43.35,1023.45,2033.56,3494.42,3083.01,3546.07,599.74,599.20,3.02,0000 0000 0000 0000 000000
2018-08-06 12:39:53,-0.01,0.03,0.00,23.33,26.31,29.14,13.91,43.26,1023.44,2033.07,3494.00,3082.88,3545.68,600.10,599.62,3.07,0000 0000 0000 0000 000000
2018-08-06 12:44:54,0.03,0.03,0.00,23.34,26.34,29.17,13.92,43.22,1023.45,2033.00,3493.51,3082.14,3545.03,599.95,599.25,3.12,0000 0000 0000 0000 000000
2018-08-06 12:49:56,0.00,0.03,0.00,23.34,26.38,29.22,13.98,43.23,1023.45,2033.00,3493.01,3082.00,3544.82,600.08,599.44,3.17,0000 0000 0000 0000 000000
2018-08-06 12:54:57,0.03,0.03,0.00,23.35,26.41,29.22,13.95,43.15,1023.45,2032.99,3492.57,3081.67,3544.06,600.07,599.32,3.22,0000 0000 0000 0000 000000
2018-08-06 12:59:58,0.01,0.03,0.00,23.37,26.44,29.23,13.93,43.03,1023.45,2032.95,3492.02,3081.08,3543.99,599.78,599.12,3.27,0000 0000 0000 0000 000000
2018-08-06 13:04:59,-0.01,0.03,0.00,23.37,26.47,29.23,13.89,43.20,1023.44,2032.69,3491.98,3081.00,3543.44,599.83,599.15,3.32,0000 0000 0000 0000 000000
2018-08-06 13:10:01,-0.02,0.03,0.00,23.39,26.50,29.29,13.95,43.08,1023.44,2032.17,3491.43,3080.97,3543.01,599.89,599.15,3.37,0000 0000 0000 0000 000000
2018-08-06 13:15:02,0.01,0.03,0.00,23.39,26.52,29.34,13.93,43.10,1023.42,2032.02,3491.01,3080.46,3542.84,600.12,599.30,3.42,0000 0000 0000 0000 000000
2018-08-06 13:20:03,0.01,0.03,0.00,23.39,26.55,29.33,13.97,43.13,1023.27,2032.00,3490.96,3080.03,3542.13,600.15,599.24,3.47,0000 0000 0000 0000 000000
2018-08-06 13:25:05,0.01,0.03,0.00,23.38,26.57,29.32,13.85,43.08,1023.35,2032.00,3490.46,3079.99,3542.00,599.59,598.81,3.52,0000 0000 0000 0000 000000
2018-08-06 13:30:06,0.00,0.03,0.00,23.38,26.59,29.36,13.93,43.08,1023.43,2032.00,3490.02,3079.99,3541.93,600.20,599.46,3.57,0000 0000 0000 0000 000000
2018-08-06 13:35:07,0.01,0.03,0.00,23.38,26.61,29.33,13.98,43.01,1023.45,2032.00,3489.99,3079.93,3541.32,600.05,599.21,3.62,0000 0000 0000 0000 000000
2018-08-06 13:40:08,0.02,0.04,0.00,23.38,26.62,29.38,13.90,43.03,1023.42,2032.00,3489.68,3079.34,3541.01,599.95,599.24,3.67,0000 0000 0000 0000 000000
2018-08-06 13:45:10,0.01,0.04,0.00,23.37,26.65,29.39,13.97,43.07,1023.34,2031.99,3489.05,3079.01,3540.96,600.13,599.27,3.72,0000 0000 0000 0000 000000
2018-08-06 13:50:11,0.00,0.04,0.00,23.39,26.66,29.40,13.92,43.27,1023.32,2031.94,3489.00,3078.99,3540.23,600.07,599.21,3.77,0000 0000 0000 0000 000000
2018-08-06 13:55:12,-0.02,0.04,0.00,23.38,26.68,29.44,13.93,43.34,1023.34,2031.63,3488.57,3078.94,3540.00,600.46,599.60,3.82,0000 0000 0000 0000 000000
2018-08-06 14:00:14,0.00,0.04,0.00,23.37,26.70,29.47,13.96,43.31,1023.22,2031.41,3488.03,3078.63,3539.95,599.95,599.19,3.87,0000 0000 0000 0000 000000
2018-08-06 14:05:15,0.01,0.04,0.00,23.38,26.71,29.47,13.91,43.08,1023.14,2031.16,3488.00,3078.13,3539.49,599.63,598.74,3.92,0000 0000 0000 0000 000000
2018-08-06 14:10:17,-0.01,0.04,0.00,23.38,26.72,29.51,13.92,43.03,1023.19,2031.10,3487.99,3078.03,3539.07,599.79,598.91,3.97,0000 0000 0000 0000 000000
2018-08-06 14:15:18,0.01,0.04,0.00,23.40,26.74,29.52,13.94,42.92,1023.06,2031.05,3487.61,3078.00,3538.99,600.26,599.26,4.02,0000 0000 0000 0000 000000
2018-08-06 14:20:19,0.00,0.04,0.00,23.39,26.75,29.52,13.91,42.95,1023.02,2031.01,3487.04,3077.99,3538.86,600.27,599.20,4.07,0000 0000 0000 0000 000000
2018-08-06 14:25:20,0.01,0.04,0.00,23.40,26.76,29.54,13.96,42.98,1022.99,2031.02,3487.00,3077.96,3538.40,599.79,598.75,4.12,0000 0000 0000 0000 000000
2018-08-06 14:30:21,0.01,0.04,0.00,23.39,26.77,29.54,13.90,42.98,1022.98,2031.01,3486.92,3077.82,3538.03,599.85,598.86,4.17,0000 0000 0000 0000 000000
2018-08-06 14:35:23,0.02,0.04,0.00,23.39,26.78,29.55,13.90,42.93,1022.97,2031.00,3486.29,3077.24,3538.00,600.06,598.85,4.22,0000 0000 0000 0000 000000
2018-08-06 14:40:24,0.01,0.04,0.00,23.39,26.80,29.60,13.91,42.89,1022.98,2031.00,3486.01,3077.02,3537.71,600.03,599.01,4.27,0000 0000 0000 0000 000000
2018-08-06 14:45:26,0.00,0.04,0.00,23.39,26.80,29.61,13.98,42.89,1022.97,2030.99,3485.99,3077.00,3537.09,600.15,599.03,4.32,0000 0000 0000 0000 000000
2018-08-06 14:50:27,0.00,0.04,0.00,23.39,26.81,29.61,13.88,42.83,1022.96,2030.99,3485.87,3077.00,3537.01,599.91,598.99,4.37,0000 0000 0000 0000 000000
2018-08-06 14:55:28,0.01,0.04,0.00,23.40,26.82,29.61,13.96,42.77,1022.96,2030.99,3485.42,3076.99,3537.00,599.89,598.75,4.43,0000 0000 0000 0000 000000
2018-08-06 15:00:30,0.00,0.04,0.00,23.39,26.82,29.67,13.88,42.73,1022.96,2030.99,3485.03,3076.98,3536.98,599.94,598.91,4.48,0000 0000 0000 0000 000000
2018-08-06 15:05:31,0.00,0.04,0.00,23.37,26.83,29.62,13.92,42.80,1022.96,2030.99,3485.00,3076.96,3536.86,600.05,599.10,4.53,0000 0000 0000 0000 000000
2018-08-06 15:10:32,0.01,0.04,0.00,23.37,26.84,29.67,13.94,42.81,1022.96,2030.99,3485.00,3076.93,3536.39,600.04,599.06,4.58,0000 0000 0000 0000 000000
2018-08-06 15:15:34,0.02,0.04,0.00,23.37,26.85,29.65,13.94,42.90,1022.96,2030.99,3484.95,3076.36,3536.02,599.89,598.88,4.63,0000 0000 0000 0000 000000
2018-08-06 15:20:35,0.01,0.04,0.00,23.37,26.85,29.71,14.00,42.78,1022.96,2030.98,3484.69,3076.14,3536.00,600.32,599.35,4.68,0000 0000 0000 0000 000000
2018-08-06 15:25:36,0.00,0.04,0.00,23.35,26.85,29.70,13.88,42.80,1022.96,2030.98,3484.20,3076.07,3535.99,599.62,598.75,4.73,0000 0000 0000 0000 000000
2018-08-06 15:30:37,0.00,0.04,0.00,23.37,26.86,29.73,13.99,42.92,1022.96,2030.98,3484.05,3076.03,3535.95,599.87,598.94,4.78,0000 0000 0000 0000 000000
2018-08-06 15:35:39,0.00,0.04,0.00,23.37,26.87,29.68,13.95,42.67,1022.96,2030.93,3484.00,3076.01,3535.40,600.58,599.53,4.83,0000 0000 0000 0000 000000
2018-08-06 15:40:40,-0.00,0.04,0.00,23.37,26.87,29.71,13.94,42.73,1022.96,2030.91,3484.00,3076.00,3535.05,599.56,598.55,4.88,0000 0000 0000 0000 000000
2018-08-06 15:45:42,0.00,0.04,0.00,23.38,26.87,29.73,13.95,42.66,1022.96,2030.86,3483.98,3076.00,3535.00,600.02,598.98,4.93,0000 0000 0000 0000 000000
2018-08-06 15:50:43,0.00,0.04,0.00,23.37,26.87,29.74,13.92,42.68,1022.96,2030.90,3483.80,3075.99,3534.99,600.06,599.03,4.98,0000 0000 0000 0000 000000
2018-08-06 15:55:44,0.01,0.04,0.00,23.39,26.87,29.69,13.96,42.65,1022.96,2030.93,3483.22,3075.98,3534.89,600.06,599.03,5.03,0000 0000 0000 0000 000000
2018-08-06 16:00:46,0.01,0.04,0.00,23.39,26.88,29.74,13.91,42.71,1022.96,2030.91,3483.02,3075.90,3534.42,599.85,598.97,5.08,0000 0000 0000 0000 000000
2018-08-06 16:05:47,0.01,0.05,0.00,23.38,26.89,29.74,14.01,42.72,1022.96,2030.84,3483.00,3075.42,3534.03,599.96,598.97,5.13,0000 0000 0000 0000 000000
2018-08-06 16:10:48,0.01,0.05,0.00,23.36,26.89,29.73,13.93,42.78,1022.96,2030.72,3482.94,3075.05,3534.00,599.93,599.00,5.18,0000 0000 0000 0000 000000
2018-08-06 16:15:49,0.01,0.05,0.00,23.37,26.90,29.75,13.99,42.80,1022.96,2030.83,3482.68,3075.03,3533.99,600.48,599.40,5.23,0000 0000 0000 0000 000000
2018-08-06 16:20:51,0.01,0.05,0.00,23.37,26.90,29.76,13.95,42.88,1022.96,2030.91,3482.20,3075.00,3533.97,599.72,598.76,5.28,0000 0000 0000 0000 000000
2018-08-06 16:25:52,0.00,0.05,0.00,23.36,26.90,29.77,13.95,42.90,1022.97,2030.92,3482.02,3075.01,3533.80,599.95,599.01,5.33,0000 0000 0000 0000 000000
2018-08-06 16:30:53,0.01,0.05,0.00,23.36,26.90,29.76,13.94,42.91,1022.98,2030.90,3482.00,3075.00,3533.30,599.60,598.53,5.38,0000 0000 0000 0000 000000
2018-08-06 16:35:54,-0.02,0.05,0.00,23.36,26.90,29.79,14.04,42.80,1022.98,2030.65,3481.96,3074.98,3533.01,600.24,599.28,5.43,0000 0000 0000 0000 000000
2018-08-06 16:40:55,0.00,0.05,0.00,23.37,26.90,29.78,13.93,42.86,1022.97,2030.59,3481.81,3074.96,3533.00,599.65,598.63,5.48,0000 0000 0000 0000 000000
2018-08-06 16:45:56,0.01,0.05,0.00,23.38,26.90,29.78,13.94,42.87,1022.97,2030.70,3481.43,3074.91,3532.97,600.08,599.18,5.53,0000 0000 0000 0000 000000
2018-08-06 16:50:58,0.01,0.05,0.00,23.39,26.90,29.78,13.96,42.92,1022.96,2030.86,3481.30,3074.89,3532.98,600.09,598.96,5.58,0000 0000 0000 0000 000000
2018-08-06 16:55:59,0.01,0.05,0.00,23.39,26.90,29.79,13.97,42.84,1022.97,2030.83,3481.05,3074.54,3532.70,599.97,598.97,5.63,0000 0000 0000 0000 000000
2018-08-06 17:01:00,-0.00,0.05,0.00,23.39,26.90,29.78,13.86,42.88,1022.97,2030.63,3481.00,3074.07,3532.07,599.83,598.79,5.68,0000 0000 0000 0000 000000
2018-08-06 17:06:01,-0.00,0.05,0.00,23.37,26.91,29.80,13.91,42.92,1022.96,2030.52,3480.99,3074.01,3532.00,599.92,598.91,5.73,0000 0000 0000 0000 000000
2018-08-06 17:11:03,-0.01,0.05,0.00,23.37,26.91,29.79,13.93,42.95,1022.96,2030.33,3480.95,3074.00,3531.99,599.92,598.91,5.78,0000 0000 0000 0000 000000
2018-08-06 17:16:04,0.03,0.05,0.00,23.35,26.91,29.80,13.94,42.95,1022.96,2030.51,3480.92,3074.00,3531.99,600.08,599.14,5.83,0000 0000 0000 0000 000000
2018-08-06 17:21:05,0.00,0.05,0.00,23.34,26.91,29.80,13.91,42.94,1022.96,2030.66,3480.59,3074.00,3531.98,599.45,598.57,5.88,0000 0000 0000 0000 000000
2018-08-06 17:26:06,0.01,0.05,0.00,23.35,26.91,29.78,13.94,42.83,1022.96,2030.71,3480.26,3074.00,3531.94,600.07,599.22,5.93,0000 0000 0000 0000 000000
2018-08-06 17:31:08,-0.01,0.05,0.00,23.34,26.90,29.79,13.88,42.92,1022.96,2030.61,3480.04,3074.00,3531.57,599.58,598.74,5.98,0000 0000 0000 0000 000000
2018-08-06 17:36:09,0.00,0.05,0.00,23.32,26.90,29.75,13.91,42.78,1022.96,2030.39,3480.00,3073.97,3531.06,600.10,599.27,6.03,0000 0000 0000 0000 000000
2018-08-06 17:41:11,0.03,0.05,0.00,23.32,26.90,29.75,13.96,42.92,1022.97,2030.58,3479.99,3073.96,3531.02,600.02,599.20,6.08,0000 0000 0000 0000 000000
2018-08-06 17:46:12,-0.01,0.05,0.00,23.31,26.90,29.75,13.94,42.89,1022.97,2030.72,3479.99,3073.95,3531.00,600.24,599.37,6.13,0000 0000 0000 0000 000000
2018-08-06 17:51:14,-0.01,0.05,0.00,23.31,26.90,29.77,13.88,42.94,1022.97,2030.53,3479.91,3073.74,3531.00,599.99,599.31,6.18,0000 0000 0000 0000 000000
2018-08-06 17:56:15,0.02,0.05,0.00,23.29,26.90,29.75,13.92,42.94,1022.96,2030.46,3479.41,3073.25,3530.97,599.92,599.10,6.23,0000 0000 0000 0000 000000
2018-08-06 18:01:16,0.02,0.05,0.00,23.29,26.90,29.77,14.02,43.07,1022.97,2030.52,3479.12,3073.12,3530.83,600.29,599.46,6.28,0000 0000 0000 0000 000000
2018-08-06 18:06:17,-0.01,0.05,0.00,23.30,26.90,29.76,13.99,42.96,1022.98,2030.36,3479.01,3073.02,3530.18,600.32,599.44,6.33,0000 0000 0000 0000 000000
2018-08-06 18:11:18,-0.01,0.05,0.00,23.30,26.90,29.74,13.91,42.88,1022.98,2030.31,3479.00,3073.00,3530.03,599.76,599.07,6.38,0000 0000 0000 0000 000000
2018-08-06 18:16:20,0.02,0.05,0.00,23.29,26.90,29.75,13.98,42.80,1022.98,2030.36,3479.00,3073.00,3530.01,600.08,599.27,6.43,0000 0000 0000 0000 000000
2018-08-06 18:21:21,-0.01,0.05,0.00,23.27,26.89,29.74,13.94,42.95,1023.01,2030.37,3478.98,3073.00,3530.00,599.91,599.11,6.48,0000 0000 0000 0000 000000
2018-08-06 18:26:22,-0.00,0.05,0.00,23.28,26.89,29.73,13.90,42.96,1023.03,2030.25,3478.81,3073.00,3529.98,599.98,599.27,6.53,0000 0000 0000 0000 000000
2018-08-06 18:31:23,0.01,0.05,0.00,23.28,26.89,29.76,14.03,42.85,1023.09,2030.28,3478.32,3072.98,3529.96,600.18,599.64,6.58,0000 0000 0000 0000 000000
2018-08-06 18:36:25,0.03,0.05,0.00,23.29,26.89,29.75,13.89,42.85,1023.15,2030.49,3478.10,3072.97,3529.87,599.97,599.32,6.63,0000 0000 0000 0000 000000
2018-08-06 18:41:26,0.00,0.05,0.00,23.27,26.88,29.75,13.86,42.89,1023.30,2030.56,3478.03,3072.98,3529.53,599.74,599.13,6.68,0000 0000 0000 0000 000000
2018-08-06 18:46:27,0.01,0.06,0.00,23.28,26.88,29.75,13.91,42.81,1023.42,2030.59,3478.01,3072.96,3529.24,599.82,599.33,6.74,0000 0000 0000 0000 000000
2018-08-06 18:51:29,0.02,0.06,0.00,23.28,26.87,29.75,13.87,42.83,1023.44,2030.78,3478.00,3072.94,3529.10,599.63,599.23,6.79,0000 0000 0000 0000 000000
2018-08-06 18:56:30,-0.00,0.06,0.00,23.29,26.87,29.74,13.87,42.83,1023.45,2030.79,3478.00,3072.84,3529.01,599.66,599.11,6.84,0000 0000 0000 0000 000000
2018-08-06 19:01:31,0.01,0.06,0.00,23.28,26.87,29.72,14.00,42.72,1023.45,2030.80,3477.97,3072.56,3529.00,600.36,599.83,6.89,0000 0000 0000 0000 000000
2018-08-06 19:06:33,0.01,0.06,0.00,23.28,26.87,29.71,13.93,42.88,1023.45,2030.80,3477.93,3072.28,3529.00,599.76,599.23,6.94,0000 0000 0000 0000 000000
2018-08-06 19:11:34,-0.01,0.06,0.00,23.28,26.87,29.74,13.92,42.95,1023.45,2030.73,3477.56,3072.10,3528.98,600.04,599.61,6.99,0000 0000 0000 0000 000000
2018-08-06 19:16:35,-0.00,0.06,0.00,23.28,26.87,29.73,14.00,42.98,1023.45,2030.53,3477.33,3072.02,3528.93,600.18,599.69,7.04,0000 0000 0000 0000 000000
2018-08-06 19:21:36,0.02,0.06,0.00,23.30,26.87,29.74,13.95,42.78,1023.42,2030.53,3477.04,3072.00,3528.66,599.93,599.39,7.09,0000 0000 0000 0000 000000
2018-08-06 19:26:38,0.00,0.06,0.00,23.30,26.87,29.72,13.94,42.80,1023.24,2030.61,3477.01,3072.00,3528.49,599.98,599.30,7.14,0000 0000 0000 0000 000000
2018-08-06 19:31:39,0.02,0.06,0.00,23.28,26.87,29.71,13.91,42.77,1023.06,2030.82,3477.01,3072.00,3528.38,599.70,598.88,7.19,0000 0000 0000 0000 000000
2018-08-06 19:36:40,0.00,0.06,0.00,23.28,26.87,29.72,13.87,42.76,1023.09,2030.78,3477.00,3072.00,3528.12,599.77,599.07,7.24,0000 0000 0000 0000 000000
2018-08-06 19:41:42,0.00,0.06,0.00,23.29,26.87,29.71,13.99,42.82,1023.02,2030.75,3476.99,3072.00,3528.03,600.04,599.26,7.29,0000 0000 0000 0000 000000
2018-08-06 19:46:43,-0.01,0.06,0.00,23.27,26.87,29.69,13.94,42.88,1023.00,2030.70,3476.99,3071.99,3528.01,600.04,599.27,7.34,0000 0000 0000 0000 000000
2018-08-06 19:51:44,0.00,0.06,0.00,23.27,26.87,29.67,13.88,42.85,1023.02,2030.72,3476.97,3071.99,3528.00,599.88,599.02,7.39,0000 0000 0000 0000 000000
2018-08-06 19:56:45,0.01,0.06,0.00,23.27,26.86,29.70,13.94,42.88,1023.13,2030.80,3476.94,3071.99,3528.00,600.14,599.48,7.44,0000 0000 0000 0000 000000
2018-08-06 20:01:46,-0.00,0.06,0.00,23.27,26.86,29.72,13.99,42.80,1023.14,2030.74,3476.57,3071.98,3527.98,600.11,599.51,7.49,0000 0000 0000 0000 000000
2018-08-06 20:06:48,0.01,0.06,0.00,23.27,26.85,29.72,13.94,42.83,1023.07,2030.64,3476.21,3071.93,3527.97,600.11,599.39,7.54,0000 0000 0000 0000 000000
2018-08-06 20:11:49,-0.01,0.06,0.00,23.29,26.85,29.69,13.97,42.83,1023.20,2030.54,3476.02,3071.76,3527.83,600.00,599.41,7.59,0000 0000 0000 0000 000000
2018-08-06 20:16:50,0.03,0.06,0.00,23.28,26.85,29.68,14.04,42.99,1023.39,2030.77,3476.01,3071.65,3527.69,600.15,599.59,7.64,0000 0000 0000 0000 000000
2018-08-06 20:21:51,0.01,0.06,0.00,23.27,26.85,29.68,13.99,43.06,1023.40,2030.86,3476.00,3071.68,3527.45,600.20,599.65,7.69,0000 0000 0000 0000 000000
2018-08-06 20:26:53,-0.01,0.06,0.00,23.26,26.85,29.70,14.01,42.89,1023.40,2030.72,3476.00,3071.47,3527.20,599.96,599.45,7.74,0000 0000 0000 0000 000000
2018-08-06 20:31:54,-0.00,0.06,0.00,23.27,26.85,29.69,13.88,42.77,1023.41,2030.52,3475.99,3071.06,3527.02,600.13,599.64,7.79,0000 0000 0000 0000 000000